Location: BAF
(53.9483°N, 27.7497°E)
Time: 23:13:03
(UTC+02:00)

ISS - Pass Details

Date: 01 December 2020
Orbit: 418 x 419 km, 51.6° (Epoch: 16 January)

Event Time Altitude Azimuth Distance (km) Brightness Sun altitude
Rises 16:44:02 0° 255° (WSW) 2,365 2.1 -7.4°
Reaches altitude 10° 16:46:09 10° 251° (WSW) 1,501 0.8 -7.6°
Maximum altitude 16:49:27 55° 173° (S) 512 -3.2 -8.1°
Drops below altitude 10° 16:52:45 10° 95° (E) 1,502 -1.5 -8.5°
Enters shadow 16:52:59 - 94° (E) 1,596 -1.3 -8.5°
